This demonstration page uses our WeatherBlox Daily Observations layout. Learn more.

Hourly Observations for June 10, 2019

Temp ( °F °C ) Dew Point ( °F °C ) Humidity (%) Winds ( mph kmh ) Pressure ( in mb ) Visibility ( mi km ) Precip ( " mm )
12:15 am 00:15 Clear 52 11.3 48 8.8 85 85 Calm 30.39 1029 10 16.09344 0 0
12:35 am 00:35 Clear 53 11.4 47 8.5 83 83 Calm 30.39 1029 10 16.09344 0 0
12:55 am 00:55 Clear 52 11.3 47 8.6 84 84 Calm 30.39 1029 10 16.09344 0 0
1:15 am 01:15 Clear 51 10.8 47 8.6 86 86 W 3 6 30.39 1029 10 16.09344 0 0
1:35 am 01:35 Clear 53 11.5 46 7.7 78 78 WNW 6 9 30.39 1029 10 16.09344 0 0
1:55 am 01:55 Clear 52 11.2 46 7.5 78 78 WNW 6 9 30.39 1029 10 16.09344 0 0
2:15 am 02:15 Clear 51 10.4 46 7.6 83 83 WNW 5 7 30.39 1029 10 16.09344 0 0
2:35 am 02:35 Clear 50 10.2 46 7.6 84 84 NW 5 7 30.39 1029 10 16.09344 0 0
2:55 am 02:55 Clear 51 10.3 45 7.3 82 82 NW 3 6 30.39 1029 10 16.09344 0 0
3:15 am 03:15 Clear 50 10.1 45 7.2 82 82 WNW 3 6 30.39 1029 10 16.09344 0 0
3:35 am 03:35 Clear 50 10.1 45 7.2 82 82 WNW 5 7 30.39 1029 10 16.09344 0 0
3:55 am 03:55 Clear 49 9.3 44 6.8 85 85 W 6 9 30.45 1031 10 16.09344 0 0
4:15 am 04:15 Clear 50 9.9 45 7 82 82 W 5 7 30.42 1030 10 16.09344 0 0
4:35 am 04:35 Clear 50 10.2 45 7.1 81 81 W 6 9 30.42 1030 10 16.09344 0 0
4:55 am 04:55 Clear 50 9.8 45 7 83 83 W 5 7 30.42 1030 10 16.09344 0 0
5:15 am 05:15 Clear 49 9.3 44 6.6 83 83 W 5 7 30.48 1032 10 16.09344 0 0
5:35 am 05:35 Clear 48 9 43 6.3 83 83 W 6 9 30.48 1032 10 16.09344 0 0
5:55 am 05:55 Clear 49 9.6 44 6.5 81 81 W 8 13 30.48 1032 10 16.09344 0 0
6:15 am 06:15 Sunny 50 10 44 6.5 79 79 W 6 9 30.45 1031 10 16.09344 0 0
6:35 am 06:35 Sunny 49 9.7 44 6.6 81 81 W 6 9 30.48 1032 10 16.09344 0 0
6:55 am 06:55 Sunny 50 9.9 45 7.2 83 83 W 6 9 30.48 1032 10 16.09344 0 0
7:15 am 07:15 Sunny 53 11.5 46 7.5 77 77 W 7 11 30.45 1031 10 16.09344 0 0
7:35 am 07:35 Sunny 55 12.5 47 8.3 76 76 W 5 7 30.45 1031 10 16.09344 0 0
7:55 am 07:55 Sunny 56 13.6 48 8.9 73 73 W 6 9 30.42 1030 10 16.09344 0 0
8:15 am 08:15 Sunny 59 14.8 49 9.2 69 69 W 9 15 30.42 1030 10 16.09344 0 0
8:35 am 08:35 Sunny 60 15.7 48 8.9 64 64 W 8 13 30.42 1030 10 16.09344 0 0
8:55 am 08:55 Sunny 62 16.7 48 8.8 60 60 W 13 20 30.39 1029 10 16.09344 0 0
9:15 am 09:15 Sunny 64 17.6 48 9.1 58 58 WSW 9 15 30.39 1029 10 16.09344 0 0
9:35 am 09:35 Sunny 64 17.7 47 8.4 55 55 WSW 10 17 30.39 1029 10 16.09344 0 0
9:55 am 09:55 Sunny 65 18.6 47 8.6 52 52 WSW 10 17 30.39 1029 10 16.09344 0 0
10:15 am 10:15 Sunny 66 18.9 47 8.6 51 51 WSW 9 15 30.39 1029 10 16.09344 0 0
10:35 am 10:35 Sunny 67 19.4 46 7.9 48 48 SW 9 15 30.39 1029 10 16.09344 0 0
10:55 am 10:55 Sunny 68 20 45 7.3 44 44 WSW 10 17 30.39 1029 10 16.09344 0 0
11:15 am 11:15 Sunny 69 20.3 47 8.4 46 46 WSW 10 17 30.36 1028 10 16.09344 0 0
11:35 am 11:35 Sunny 69 20.5 43 5.9 39 39 WSW 7 11 30.33 1027 10 16.09344 0 0
11:55 am 11:55 Sunny 70 21 43 6.2 38 38 W 10 17 30.33 1027 10 16.09344 0 0
12:15 pm 12:15 Sunny 70 21.1 43 5.9 37 37 W 13 20 30.33 1027 10 16.09344 0 0
12:35 pm 12:35 Sunny 70 21.3 42 5.3 35 35 SW 8 13 30.33 1027 10 16.09344 0 0
12:55 pm 12:55 Sunny 71 21.8 42 5.6 35 35 WSW 12 19 30.3 1026 10 16.09344 0 0
1:15 pm 13:15 Sunny 71 21.8 42 5.4 34 34 WSW 6 9 30.3 1026 10 16.09344 0 0
1:35 pm 13:35 Sunny 72 22.3 41 4.9 32 32 WSW 9 15 30.3 1026 10 16.09344 0 0
1:55 pm 13:55 Sunny 72 22.2 42 5.3 33 33 SSW 6 9 30.27 1025 10 16.09344 0 0
2:15 pm 14:15 Sunny 73 22.5 41 5 32 32 WSW 6 9 30.27 1025 10 16.09344 0 0
2:35 pm 14:35 Sunny 73 22.6 39 4.1 30 30 WNW 9 15 30.21 1023 10 16.09344 0 0
2:55 pm 14:55 Sunny 73 22.9 37 3 27 27 W 6 9 30.21 1023 10 16.09344 0 0
3:15 pm 15:15 Sunny 74 23.3 40 4.5 30 30 Calm 30.21 1023 10 16.09344 0 0
3:35 pm 15:35 Sunny 74 23.2 40 4.2 29 29 SSW 6 9 30.18 1022 10 16.09344 0 0
3:55 pm 15:55 Sunny 75 23.7 41 4.8 29 29 WSW 7 11 30.18 1022 10 16.09344 0 0
4:15 pm 16:15 Sunny 75 23.8 40 4.7 29 29 SSE 6 9 30.18 1022 10 16.09344 0 0
4:35 pm 16:35 Sunny 75 23.8 41 5 30 30 SSW 5 7 30.18 1022 10 16.09344 0 0
4:55 pm 16:55 Sunny 76 24.4 40 4.3 27 27 S 5 7 30.15 1021 10 16.09344 0 0
5:15 pm 17:15 Sunny 75 23.8 39 3.9 27 27 Calm 30.15 1021 10 16.09344 0 0
5:35 pm 17:35 Sunny 75 24.1 39 3.8 27 27 SSW 5 7 30.15 1021 10 16.09344 0 0
5:55 pm 17:55 Sunny 76 24.2 39 3.9 27 27 SSE 7 11 30.12 1020 10 16.09344 0 0
6:15 pm 18:15 Sunny 76 24.2 36 2.3 24 24 SSW 5 7 30.12 1020 10 16.09344 0 0
6:35 pm 18:35 Sunny 75 24 38 3.3 26 26 S 9 15 30.12 1020 10 16.09344 0 0
6:55 pm 18:55 Sunny 75 24 36 2.3 24 24 SSE 6 9 30.12 1020 10 16.09344 0 0
7:15 pm 19:15 Sunny 74 23.5 40 4.6 29 29 SE 10 17 30.12 1020 10 16.09344 0 0
7:35 pm 19:35 Sunny 74 23.2 42 5.3 31 31 S 10 17 30.12 1020 10 16.09344 0 0
7:55 pm 19:55 Sunny 73 22.5 42 5.5 33 33 SSE 10 17 30.12 1020 10 16.09344 0 0
8:15 pm 20:15 Sunny 71 21.9 43 6.3 36 36 SSE 8 13 30.12 1020 10 16.09344 0 0
8:35 pm 20:35 Sunny 69 20.8 44 6.6 40 40 SE 9 15 30.12 1020 10 16.09344 0 0
8:55 pm 20:55 Sunny 68 19.8 44 6.9 43 43 SE 10 17 30.12 1020 10 16.09344 0 0
9:15 pm 21:15 Clear 65 18.5 46 7.6 49 49 SE 10 17 30.12 1020 10 16.09344 0 0
9:35 pm 21:35 Clear 65 18.1 45 7 48 48 SSE 8 13 30.12 1020 10 16.09344 0 0
9:55 pm 21:55 Clear 64 17.5 45 7.3 51 51 SSE 9 15 30.15 1021 10 16.09344 0 0
10:15 pm 22:15 Clear 63 17.2 46 7.5 53 53 SSE 13 20 30.15 1021 10 16.09344 0 0
10:35 pm 22:35 Clear 62 16.8 47 8.3 57 57 SSE 9 15 30.15 1021 10 16.09344 0 0
10:55 pm 22:55 Clear 62 16.7 47 8.3 58 58 S 12 19 30.15 1021 10 16.09344 0 0
11:15 pm 23:15 Clear 62 16.5 47 8.6 60 60 S 13 20 30.15 1021 10 16.09344 0 0
11:35 pm 23:35 Clear 61 16.2 48 8.9 62 62 S 13 20 30.15 1021 10 16.09344 0 0
11:55 pm 23:55 Clear 60 15.7 48 9 65 65 S 12 19 30.15 1021 10 16.09344 0 0

Powered by AerisWeather